Regional Weather Roundup
Issued by NWS

Home | Current Version | Previous Version | Graphics & Text | Print | Product List | Glossary On
Versions: 1 2 3 4 5 6 7 8 9 10 11 12 13 14 15 16 17 18 19 20 21 22 23 24 25 26 27 28 29 30 31 32 33 34 35 36 37 38 39 40 41 42 43 44 45 46 47 48 49 50
000
ASUS45 KTFX 160919
RWRMT
MONTANA HOURLY WEATHER ROUNDUP
NATIONAL WEATHER SERVICE GREAT FALLS MT
319 AM MDT TUE SEP 16 2014

NOTE: "FAIR" INDICATES FEW OR NO CLOUDS BELOW 12000 FEET WITH NO
SIGNIFICANT WEATHER AND/OR OBSTRUCTIONS TO VISIBILITY.

* THESE STATIONS ARE NOT UNDER NWS QUALITY CONTROL. THEY DO NOT
   REPORT WEATHER SUCH AS PRECIPITATION OR FOG.

MTZ001>007-043-161000-
WEST OF THE DIVIDE
CITY           SKY/WX    TMP DP  RH WIND       PRES   REMARKS
KALISPELL      PTCLDY    37  36  96 CALM      30.01S
MISSOULA       PTCLDY    52  36  55 CALM      30.05R
BUTTE          PTCLDY    41  30  65 S5        30.17S
MULLAN PASS    PTCLDY    63  25  24 S7        30.14S
* ESSEX        N/A       42  35  76 NE1G7      N/A
* LINCOLN      N/A       36  27  70 NW1        N/A
* LOOKOUT PASS N/A       53  31  43 S2         N/A
* POLSON       N/A       53  31  43 N/A        N/A
* RONAN APT    PTCLDY    43  34  71 N/A        N/A
* SEELEY LAKE  N/A       37  28  70 NE1        N/A
* THOMP F APT  PTCLDY    57  27  32 N1G6       N/A
$$

MTZ008-052>055-161000-
SOUTHWEST MONTANA
CITY           SKY/WX    TMP DP  RH WIND       PRES   REMARKS
BOZEMAN        CLEAR     46  36  68 S6        30.11F
DILLON         PTCLDY    48  28  46 S9        30.13F
W YELLOWSTONE  CLEAR     30  25  82 CALM      30.26F
* THREE FORKS  CLEAR     39  25  57 N/A        N/A
* BOULDER HILL N/A       51  27  39 S9         N/A
* MONIDA PASS  N/A       48  27  44 W2         N/A
* RAYNOLDS PAS N/A       47  32  56 S3         N/A
* WHITEHALL    N/A       46  35  66 N6         N/A
* WISE RIVER   N/A       40  24  53 W3         N/A
$$

MTZ009>010-012-014-046-048-049-054-161000-
EAST SLOPES AND CENTRAL MONTANA
CITY           SKY/WX    TMP DP  RH WIND       PRES   REMARKS
CUT BANK       PTCLDY    43  34  71 SW6       30.03R
GREAT FALLS    PTCLDY    46  36  68 W8        30.01S
HELENA         PTCLDY    50  36  59 CALM      30.08R
MALMSTROM AFB  PTCLDY    52  37  57 W7        30.03S
* CONRAD       PTCLDY    39  39 100 N/A        N/A
* EAST GLACIER N/A       50  30  46 N4         N/A
* MONARCH      N/A       45  25  45 S7G13      N/A
* PENDROY      N/A       51  35  54 N/A        N/A
* ROGERS PASS  N/A       54  29  38 SE2G7      N/A
* SAINT MARY   N/A       35  32  89 SE3        N/A
* SWEET GRASS  N/A       52  41  66 S10        N/A
$$

MTZ011-013-016-021-035-040-045-047-050-051-161000-
NORTH CENTRAL MONTANA
CITY           SKY/WX    TMP DP  RH WIND       PRES   REMARKS
HAVRE          CLEAR     45  41  86 CALM      29.98F
LEWISTOWN      CLEAR     45  36  71 SE6       30.05F
* CHINOOK      CLEAR     46  43  89 E5        29.99S
* FORT BENTON  CLEAR     46  43  89 CALM      30.01S
* CHESTER      N/A       42  38  86 N2         N/A
* DENTON       N/A       41  40  96 S4         N/A
* JUDITH GAP   N/A       47  41  80 SE8        N/A
* LOMA         N/A       48  43  83 N/A        N/A
$$

MTZ017>020-022>027-061-062-161000-
NORTHEAST MONTANA
CITY           SKY/WX    TMP DP  RH WIND       PRES   REMARKS
GLASGOW        CLEAR     48  36  63 E13       30.01F
GLENDIVE       CLEAR     43  36  76 N6        30.04F
JORDAN         CLEAR     39  37  93 CALM      30.01F
SIDNEY         CLEAR     36  32  85 CALM      30.05S
WOLF POINT     CLEAR     39  32  76 CALM      30.04S
* BEAVER HILL  N/A       47  41  80 E4         N/A
* CIRCLE       N/A       42  38  86 N/A        N/A
* LINDSAY DVD  N/A       49  34  56 E1         N/A
* NAVAJO       N/A       49  30  48 N/A        N/A
* SACO         N/A       42  38  86 N/A        N/A
$$

MTZ028>042-056>058-161000-
SOUTHCENTRAL AND SOUTHEAST MONTANA
CITY           SKY/WX    TMP DP  RH WIND       PRES   REMARKS
BAKER          CLEAR     43  41  93 E5        30.05F
BILLINGS       CLEAR     50  43  77 SW12      30.04F
LIVINGSTON     CLEAR     45  34  65 VRB3      30.12S
MILES CITY     CLEAR     46  39  77 NE7       30.02F
* LAUREL APT   CLEAR     46  39  77 N/A        N/A
* ROUNDUP APT  CLEAR     46  39  77 N/A        N/A
* ALZADA       N/A       46  43  89 NW2        N/A
* HYSHAM       N/A       55  35  47 W3         N/A
* LAME DEER    N/A       61  39  44 SW6        N/A
* REED POINT   N/A       43  41  93 W6         N/A
* ROSCOE HILL  N/A       60  19  20 SW11       N/A
$$

REGIONAL REPORTS...DAKOTAS
CITY           SKY/WX    TMP DP  RH WIND       PRES   REMARKS
WILLISTON      CLEAR     36  32  85 CALM      30.03F
DICKINSON      CLEAR     43  37  79 S10       30.04F
BEACH          N/A       37  37 100 SE7       30.04F WCI  32
CROSBY         CLEAR     43  37  79 SW8       30.03F
TIOGA          CLEAR     32  32 100 CALM      30.07S
WATFORD CITY   CLEAR     32  32 100 CALM      30.02F
BISMARCK       CLEAR     46  37  71 CALM      30.09F
GRAND FORKS    CLEAR     48  39  71 SW7       30.05S
FARGO          CLEAR     46  37  71 SW9       30.11F
BUFFALO SD     CLEAR     48  41  77 SE3       29.99F
RAPID CITY     CLEAR     46  41  83 CALM      30.05F
$$

REGIONAL REPORTS...WYOMING/IDAHO/WASHINGTON
CITY           SKY/WX    TMP DP  RH WIND       PRES   REMARKS
GILLETTE       CLEAR     48  43  83 CALM      30.10F
SHERIDAN       CLEAR     45  39  80 CALM      30.08F
CODY           CLEAR     55  37  51 S13       30.15S
YELLOWSTONE LA CLEAR     34  28  79 CALM      30.36S
SALMON         MOCLDY    46  39  77 CALM      30.10R
MULLAN PASS    PTCLDY    63  25  24 S7        30.14S
SAND POINT     PTCLDY    43  43 100 CALM      29.97S
SPOKANE        MOCLDY    63  37  38 NE9       29.93R
$$

REGIONAL REPORTS...ALBERTA
CITY           SKY/WX    TMP DP  RH WIND       PRES   REMARKS
CALGARY        N/A       45  37  74 NW6       29.99S
LETHBRIDGE     CLEAR     43  41  93 VRB2      29.98S
MEDICINE HAT   CLEAR     48  43  83 SE3       29.95F
EDMONTON       FAIR      45  39  80 SE5       29.93F
WATERTON GATE  N/A       50  36  59 S12        N/A
CARDSTON       N/A       43  37  79 S2         N/A
MILK RIVER     N/A       39  37  93 W2         N/A
$$

REGIONAL REPORTS...SASKATCHEWAN
CITY           SKY/WX    TMP DP  RH WIND       PRES   REMARKS
SWIFT CURRENT  CLEAR     46  39  77 SW12      29.99S
REGINA         N/A       41  37  86 SE6       30.00F
VAL MARIE      N/A       37  36  96 NE3        N/A
ASSINIBOIA     N/A       41  37  86 SW2        N/A
CORONACH       N/A       36  34  92 CALM       N/A

$$



USA.gov is the U.S. government's official web portal to all federal, state and local government web resources and services.